Вернуться в каталог

FENGYUN 1C DEB

АктивенPO
NORAD 31977·DEBRIS·🇨🇳 China

Запущен May 10, 1999 с Taiyuan Satellite Launch Center

Loading…

Ближайшие Пролёты (ближайшие 24 часа)

TLE

УстаревающийSource: Space-Track

Эпоха: Sep 3, 2026, 14:21 UTC

1 31977U 99025CPE 26246.59849274  .00001703  00000-0  11846-2 0  9993
2 31977  98.2108  21.2672 0271117 216.5113 141.7292 13.83710491658748

Отслеживайте FENGYUN 1C DEB в реальном времени с AllMySat

Download on the App Store